{"data":{"norad_id":54181,"intl_designator":"2022-141AA","name":"STARLINK-5227","alt_names":[],"object_type":"PAYLOAD","status":"ACTIVE","operator":null,"country":"US","launch_date":"2022-10-28","launch_site_code":"AFWTR","launch_vehicle":null,"mission":null,"orbit_class":"UNKNOWN","rcs_meters":null,"size_class":null,"mass_kg":null,"dimensions":null,"purposes":["comms"],"wikipedia_slug":null,"has_3d_model":false,"image_url":null,"decayed_at":null,"tle_current":{"epoch":"2026-09-20T10:31:04.741248Z","epoch_age_seconds":95208,"freshness":"FRESH","line1":"1 54181U 22141AA  26263.43824932 -.00001518  00000+0 -33827-4 0  9996","line2":"2 54181  53.1595 194.0692 0001580  82.4105 277.7077 15.34371057215476","mean_motion":15.34371057,"eccentricity":0.000158,"inclination_deg":53.1595,"raan_deg":194.0692,"arg_perigee_deg":82.4105,"mean_anomaly_deg":277.7077,"bstar":-3.3827e-5,"rev_number":21547,"period_min":93.849528341305,"perigee_km":461.70839990474,"apogee_km":463.87013260488,"semimajor_km":6840.9262662548,"source":"CELESTRAK","updated_at":"2026-09-21T09:00:33.092824Z"}}}